Regional Weather Roundup
Issued by NWS Northern Indiana

Home | Current Version | Previous Version | Graphics & Text | Print | Product List | Glossary On
Versions: 1 2 3 4 5 6 7 8 9 10 11 12 13 14 15 16 17 18 19 20 21 22 23 24 25 26 27 28 29 30 31 32 33 34 35 36 37 38 39 40 41 42 43 44 45 46 47 48 49 50
737
ASUS43 KIWX 210310
RWRIWX

KIWX WEATHER ROUNDUP
NATIONAL WEATHER SERVICE NORTHERN INDIANA
1000 PM EST SAT JAN 20 2018

NOTE: "FAIR" INDICATES FEW OR NO CLOUDS BELOW 12,000 FEET WITH NO
SIGNIFICANT WEATHER AND/OR OBSTRUCTIONS TO VISIBILITY.

* THESE STATIONS ARE NOT UNDER NWS QUALITY CONTROL. THEY ALSO MAY NOT
  REPORT WEATHER SUCH AS PRECIPITATION OR FOG.

INZ001>027-210400-
NORTHERN INDIANA

CITY           SKY/WX    TMP DP  RH WIND       PRES   REMARKS
GARY*          CLOUDY    41  37  87 VRB6      30.01F
VALPARAISO     CLOUDY    38  35  89 S3        30.02S
MICHIGAN CITY* CLOUDY    37  36  93 S6        30.02S
LAPORTE*       CLOUDY    36  34  94 S5        30.02S
KNOX*          CLOUDY    36  34  93 S6        30.02F
SOUTH BEND     CLOUDY    36  35  96 S6        30.03S
GOSHEN         CLOUDY    37  35  92 S7        30.03F FOG
MONTICELLO*    CLOUDY    39  32  76 S7        30.03S
LOGANSPORT*    CLOUDY    36  32  87 S6        30.05F
ROCHESTER*     CLOUDY    39  36  87 S5        30.04F
WARSAW*        CLOUDY    36  36 100 CALM      30.04F
AUBURN*        CLOUDY   N/A N/A N/A CALM      30.05F HAZE
FORT WAYNE     DRIZZLE   38  36  92 SW6       30.06F
HUNTINGTON*    CLOUDY    37  36  96 SW3       30.05F FOG
PERU/GRISSOM   CLOUDY    38  38 100 S7        30.04S
MARION*        CLOUDY    37  35  92 CALM      30.07R

$$
INZ028>050-210400-
CENTRAL INDIANA

CITY           SKY/WX    TMP DP  RH WIND       PRES   REMARKS
LAFAYETTE      CLOUDY    40  35  83 VRB3      30.04S
MUNCIE*        CLOUDY    41  33  73 S6        30.07S
INDIANAPOLIS   DRZL/FOG  40  40 100 S3        30.08S VSB 3/4

$$
MIZ043>046-050>051-056>058-064>065-071>073-077>080-210400-
SOUTHWEST LOWER MICHIGAN

CITY           SKY/WX    TMP DP  RH WIND       PRES   REMARKS
BATTLE CREEK   CLOUDY    36  33  89 SW9       30.01S
BENTON HARBOR  CLOUDY    39  34  82 S8        30.01S
COLDWATER*     CLOUDY    37  35  95 SW5       30.03S FOG
HILLSDALE*     CLOUDY    36  32  87 S6        30.02S
HOLLAND        FAIR      34  30  85 S7        29.99F WCI  28
GRAND RAPIDS   FAIR      32  27  81 S7        29.99F WCI  26
KALAMAZOO      CLOUDY    38  34  85 SW7       30.02S
STURGIS*       CLOUDY    37  36  96 SW7       30.02S FOG
THREE RIVERS*  CLOUDY    37  34  88 S6        30.03S

$$
OHZ001>008-015>018-024>025-210400-
NORTHWEST OHIO

CITY           SKY/WX    TMP DP  RH WIND       PRES   REMARKS
WAUSEON*       CLOUDY    37  37 100 SW9       30.06R
DEFIANCE       CLOUDY    38  34  85 SW6       30.07R
FINDLAY        CLOUDY    41  34  76 SW9       30.07R
TOLEDO EXPRESS CLOUDY    38  35  89 SW9       30.06R
TOLEDO METCALF CLOUDY    37  32  82 SW7       30.07S
LIMA           CLOUDY    39  32  76 SW6       30.07S

$$
AND FOR LAKE MICHIGAN COASTAL AND OPEN LAKE BUOY OBSERVATIONS

STATION/POSITION TEMP    WIND        PRES    VSBY  WAVE
                 AIR SEA DIR/SP/G                  HT/PER
                 (F)     (DEG/KT/KT) (MB)    (MI)  (FT/S)
CALUMET HARBOR    40     170/  4/  5 1015.1F
MICHIGAN CITY     38     170/ 11/ 13   N/A
BURNS HARBOR      39     190/  9/ 11 1016.9S
SAINT JOSEPH      39     160/  4/ 10 1016.9

$$
&&




USA.gov is the U.S. government's official web portal to all federal, state and local government web resources and services.